星链-5770 (STARLINK-5770 )

导读

STARLINK-5770是美国于2023年3月24日发射的星链卫星,隶属于SpaceX公司的星链星座项目。该项目旨在构建全球卫星互联网星座,为全球偏远地区等提供高速互联网接入服务。作为星链组网卫星之一,它进一步扩充了星链星座的规模,推动项目全球覆盖目标的实现。

基本信息
目录编号:
56026
目录名称:
STARLINK-5770
国际标识:
2023-042AS
轨道中心:
EARTH
卫星名称:
星链-5770
卫星全名:
星链-5770 (STARLINK-5770 )
卫星状态:
在轨 (已飞行1268 天)
发射日期:
2023-03-24 UTC
国别 :
美国 (US)
星等 :
--
该卫星已列入 空间交会检测服务 Space Conjunction Data Service (SCDS) ,当前飞行风险评估等级: 高风险
轨道信息
数据来源 国际轨道数据 AOE轨道数据
星历时间 2026-09-11T21:06:37+0800
1天前
查看轨道信息
2026-09-07T01:00:00+0800
5天前
查看轨道信息
半长轴 6861.202km 6861.192km
偏心率 0.0001256 0.0001064
轨道倾角 43.003° 43.004°
近地点辐角 267.511° 282.523°
升交点赤经 75.284° 102.608°
平近点角 92.560° 81.244°
近地点 482.203km 482.324km
远地点 483.927km 483.786km
周期 94.267分钟 94.267分钟
每日圈数 15.275749 15.275782
详细信息
固有亮度:
5
最大亮度:
2.5
卫星平台:
Starlink v1.5
覆盖范围:
全球
运营商:
太空探索技术公司
运营商所在国:
美国
制造商(研发单位):
太空探索技术公司
制造商所在国:
美国
使用方式:
暂无
卫星简介
星链(Starlink)计划是由太空探索技术公司(SpaceX)提出的一个巨型低轨卫星互联网星座项目,计划在2019年至2024年间在太空搭建由约1.2万颗卫星组成的“星链”网络,其中1584颗将部署在地球上空550千米处的近地轨道,并从2020年开始工作。该卫星仍在工作。
2D轨道图
3D轨道图
轨道高度分析图
轨道倾角分析图
轨道综合分析图
查看轨道综合分析图
与全量物体交会距离演化趋势
与全量物体交会风险概率演化趋势